Main page
Satellite images Climate Cyclones Lightning AirportsFAQ Languages Contact Newsletter About
Weather : Europe Africa North America South America Asia Australia-Oceania Others

pattaya-th, Pattaya-Rayong, U-Tapao International Airport

48477

latitude: , longitude: Thailand, elevation: 12-38N m


METAR: VTBU 211230Z 23004KT 6000 NSC 29/22 Q1011 NOSIG